Terminal Aerodrome Forecast
Issued by NWS Billings, MT

Home | Current Version | Previous Version | Graphics & Text | Print | Product List | Glossary On
Versions: 1 2 3 4 5 6 7 8 9 10 11 12 13 14 15 16 17 18 19 20 21 22 23 24 25 26 27 28
000
FTUS45 KBYZ 192325
TAFMLS
TAF
KMLS 192325Z 2000/2024 26006KT P6SM SCT100
     FM200300 21008KT P6SM VCTS SCT100CB BKN120
     FM201000 24005KT P6SM VCSH SCT100 WS017/30042KT
     FM201600 31015G22KT P6SM VCSH SCT100
     FM202000 32008KT P6SM FEW080 BKN100=

USA.gov is the U.S. government's official web portal to all federal, state and local government web resources and services.